User: anonymous   Login
Location: Unspecified
(0.0000°N, 0.0000°E)
Time: 02:54:35
(UTC+00:00)
Language:

Aussat K3 - Orbit

View from above orbital plane
View from above orbital plane
View from above satellite
View from above satellite

Ground track
Ground track

The orbit data is extracted from the following two-line orbital elements,

1 18350U 87078A   17023.07433300  .00000015  00000-0  00000+0 0  9995
2 18350  14.5671  19.6469 0009699 274.0729 260.2564  0.98904932106570
Epoch (UTC): 23 January 2017 01:47:02
Eccentricity: 0.0009699
inclination: 14.5671°
perigee height: 36132 km
apogee height: 36215 km
right ascension of ascending node: 19.6469°
argument of perigee: 274.0729°
revolutions per day: 0.98904932
mean anomaly at epoch: 260.2564°
orbit number at epoch: 10657

The dashed part of the orbit path shows where the satellite is in the earth's shadow,  

DLR